Weather History for Sheridan, WY

Change the Weather History Date:

Friday, February 15, 2013

  Actual Average Record
Temperature  
Mean Temperature 26 °F 26 °F  
Max Temperature 34 °F 39 °F 63 °F (2011)
Min Temperature 17 °F 14 °F -28 °F (1936)
Degree Days  
Heating Degree Days 39 39  
Month to date heating degree days 567 595  
Since 1 July heating degree days 4762 5055  
Cooling Degree Days 0 0  
Month to date cooling degree days 0 0  
Year to date cooling degree days 0 0  
Moisture  
Dew Point 20 °F    
Average Humidity 71    
Maximum Humidity 88    
Minimum Humidity 53    
Precipitation  
Precipitation 0.06 in 0.02 in 0.22 in (1940)
Month to date precipitation 0.35 0.29  
Year to date precipitation 1.31 0.85  
Sea Level Pressure  
Sea Level Pressure 30.33 in    
Wind  
Wind Speed 7 mph (WNW)    
Max Wind Speed 21 mph    
Max Gust Speed 24 mph    
Visibility 6 miles    
Events Snow    
T = Trace of Precipitation, MM = Missing Value Source: NWS Daily Summary

Daily Weather History Graph

Daily Weather History Graph

Search for Another Location

Airport:

Trip Planner

Search our weather history database for the weather conditions in past years. The results will help you decide how hot, cold, wet, or windy it might be!

Date:

Astronomy

Feb. 15, 2013 Rise Set
Actual Time 7:07 AM MST 5:36 PM MST
Civil Twilight 6:37 AM MST 6:06 PM MST
Nautical Twilight 6:03 AM MST 6:41 PM MST
Astronomical Twilight 5:29 AM MST 7:14 PM MST
Moon 9:29 AM MST (2/15) 11:58 PM MST (2/15)
Length of Visible Light 11h 28m
Length of Day
10h 28m
Waxing Crescent, 31% of the Moon is Illuminated
Feb 15
Waxing Crescent
Feb 17
First Quarter
Feb 25
Full
Mar 4
Last Quarter
Mar 11
New

Hourly Weather History & Observations

Time (MST) Temp. Windchill Dew Point Humidity Pressure Visibility Wind Dir Wind Speed Gust Speed Precip Events Conditions
12:53 AM 26.1 °F 16.2 °F 19.9 °F 78% 30.38 in 10.0 mi West 10.4 mph - 0.00 in   Mostly Cloudy
1:53 AM 23.0 °F 17.0 °F 19.0 °F 85% 30.38 in 10.0 mi West 4.6 mph - N/A   Scattered Clouds
2:53 AM 25.0 °F 14.8 °F 19.0 °F 78% 30.38 in 10.0 mi West 10.4 mph - N/A   Overcast
3:20 AM 24.8 °F 17.9 °F 21.2 °F 86% 30.24 in 2.5 mi West 5.8 mph - 0.00 in Snow Light Snow
3:35 AM 24.8 °F 17.9 °F 21.2 °F 86% 30.25 in 3.0 mi WNW 5.8 mph - 0.00 in Snow Light Snow
3:42 AM 24.8 °F 20.5 °F 21.2 °F 86% 30.26 in 1.8 mi NNE 3.5 mph - 0.00 in Snow Light Snow
3:53 AM 24.1 °F 19.7 °F 21.0 °F 88% 30.41 in 1.2 mi NNW 3.5 mph - 0.00 in Snow Light Snow
4:06 AM 24.8 °F 14.6 °F 21.2 °F 86% 30.25 in 1.2 mi WNW 10.4 mph - 0.01 in Snow Light Snow
4:12 AM 24.8 °F 14.0 °F 21.2 °F 86% 30.25 in 2.0 mi WNW 11.5 mph - 0.01 in Snow Light Snow
4:18 AM 24.8 °F 6.8 °F 21.2 °F 86% 30.25 in 8.0 mi WSW 34.5 mph 104.7 mph 0.01 in Snow Light Snow
4:35 AM 24.8 °F 14.6 °F 21.2 °F 86% 30.25 in 10.0 mi West 10.4 mph - 0.01 in   Overcast
4:53 AM 25.0 °F 17.1 °F 21.9 °F 88% 30.39 in 2.5 mi WNW 6.9 mph - 0.01 in Snow Light Snow
5:02 AM 24.8 °F 16.9 °F 21.2 °F 86% 30.26 in 1.2 mi NW 6.9 mph - 0.00 in Snow Light Snow
5:53 AM 25.0 °F 13.6 °F 21.9 °F 88% 30.43 in 1.0 mi NW 12.7 mph - 0.04 in Snow Light Snow
6:06 AM 24.8 °F 12.4 °F 21.2 °F 86% 30.29 in 1.2 mi NW 15.0 mph - 0.00 in Snow Light Snow
6:15 AM 24.8 °F 12.9 °F 21.2 °F 86% 30.29 in 1.0 mi WNW 13.8 mph - 0.01 in Snow Light Snow
6:24 AM 24.8 °F 12.9 °F 21.2 °F 86% 30.29 in 2.0 mi WNW 13.8 mph - 0.01 in Snow Light Snow
6:30 AM 24.8 °F 11.9 °F 21.2 °F 86% 30.29 in 5.0 mi NW 16.1 mph - 0.01 in Snow Light Snow
6:39 AM 24.8 °F 11.9 °F 21.2 °F 86% 30.30 in 5.0 mi NW 16.1 mph - 0.01 in Snow Light Snow
6:53 AM 25.0 °F 10.9 °F 21.0 °F 85% 30.44 in 4.0 mi NW 19.6 mph - 0.01 in Snow Light Snow
7:27 AM 24.8 °F 11.9 °F 21.2 °F 86% 30.30 in 1.8 mi NW 16.1 mph - 0.00 in Snow Light Snow
7:43 AM 24.8 °F 10.7 °F 21.2 °F 86% 30.30 in 2.0 mi WNW 19.6 mph - 0.00 in Snow Light Snow
7:51 AM 24.8 °F 10.3 °F 21.2 °F 86% 30.30 in 6.0 mi WNW 20.7 mph - 0.00 in Snow Light Snow
7:53 AM 25.0 °F 10.9 °F 21.0 °F 85% 30.45 in 7.0 mi WNW 19.6 mph - 0.00 in Snow Light Snow
8:06 AM 24.8 °F 11.5 °F 21.2 °F 86% 30.31 in 2.0 mi WNW 17.3 mph - 0.00 in Snow Light Snow
8:16 AM 24.8 °F 12.4 °F 21.2 °F 86% 30.31 in 3.0 mi NW 15.0 mph - 0.00 in Snow Light Snow
8:53 AM 25.0 °F 14.2 °F 21.0 °F 85% 30.45 in 10.0 mi NW 11.5 mph - 0.00 in   Overcast
9:18 AM 26.6 °F 15.2 °F 21.2 °F 80% 30.33 in 1.8 mi NW 13.8 mph - 0.00 in Snow Light Snow
9:38 AM 26.6 °F 14.7 °F 21.2 °F 80% 30.32 in 2.0 mi NW 15.0 mph - 0.00 in Snow Light Snow
9:42 AM 26.6 °F 14.7 °F 21.2 °F 80% 30.32 in 6.0 mi NW 15.0 mph - 0.00 in Snow Light Snow
9:53 AM 28.4 °F 16.6 °F 21.2 °F 74% 30.32 in 10.0 mi NW 16.1 mph - N/A   Overcast
10:53 AM 28.9 °F 17.7 °F 19.9 °F 69% 30.45 in 10.0 mi NW 15.0 mph - 0.00 in   Overcast
11:53 AM 30.0 °F 24.1 °F 19.9 °F 66% 30.43 in 10.0 mi North 5.8 mph - N/A   Overcast
12:53 PM 30.0 °F 25.2 °F 19.0 °F 64% 30.40 in 10.0 mi SW 4.6 mph - N/A   Scattered Clouds
1:53 PM 30.0 °F - 19.0 °F 64% 30.38 in 10.0 mi Calm Calm - N/A   Clear
2:53 PM 30.0 °F 25.2 °F 16.0 °F 56% 30.36 in 10.0 mi South 4.6 mph - N/A   Partly Cloudy
3:53 PM 28.0 °F 21.7 °F 19.0 °F 69% 30.35 in 10.0 mi South 5.8 mph - N/A   Mostly Cloudy
4:53 PM 27.0 °F 21.6 °F 19.9 °F 75% 30.33 in 10.0 mi SW 4.6 mph - N/A   Overcast
5:53 PM 28.0 °F 24.2 °F 19.9 °F 72% 30.31 in 10.0 mi South 3.5 mph - N/A   Overcast
6:53 PM 24.1 °F 17.0 °F 16.0 °F 71% 30.30 in 10.0 mi SSW 5.8 mph - N/A   Mostly Cloudy
7:53 PM 27.0 °F - 17.1 °F 66% 30.28 in 10.0 mi Calm Calm - N/A   Overcast
8:53 PM 23.0 °F - 16.0 °F 74% 30.27 in 10.0 mi Calm Calm - N/A   Clear
9:53 PM 19.0 °F - 12.0 °F 74% 30.25 in 10.0 mi Calm Calm - N/A   Clear
10:53 PM 19.9 °F - 12.0 °F 71% 30.24 in 10.0 mi Calm Calm - N/A   Clear
11:53 PM 27.0 °F 23.0 °F 16.0 °F 63% 30.20 in 10.0 mi North 3.5 mph - N/A   Clear